Location: Pabrico
(37.5827°N, 122.0063°W)
Time: 22:47:56
(UTC+00:00)

USA-17 - Pass Details

Date: 13 April 2024
Orbit: 388 x 1675 km, 63.3° (Epoch: 20 May)

Event Time Altitude Azimuth Distance (km) Brightness Sun altitude
Exits shadow 11:55:32 - 326° (NW) 2,183 7.8 -19.2°
Reaches altitude 10° 11:57:03 10° 325° (NW) 1,539 7.0 -19.0°
Maximum altitude 12:00:22 81° 238° (WSW) 507 4.4 -18.4°
Drops below altitude 10° 12:04:36 10° 152° (SSE) 1,959 7.6 -17.7°
Sets 12:07:14 0° 151° (SSE) 3,063 8.7 -17.2°
